Location: Alma
(34.4195°N, 97.6123°W)
Time: 19:29:49
(UTC+00:00)

Hubble Space Telescope - Visible Passes

Search period start: 09 December 2022 00:00
Search period end: 19 December 2022 00:00
Orbit: 530 x 534 km, 28.5° (Epoch: 08 December)

Date Brightness Start Highest point End Pass type
(mag) Time Alt. Az. Time Alt. Az. Time Alt. Az.
09 Dec 2.6 11:13:02 23° SSE 11:13:02 23° SSE 11:16:17 10° ESE visible
09 Dec 2.1 12:49:55 10° WSW 12:53:40 35° S 12:57:23 10° ESE visible
10 Dec 2.8 11:01:19 23° SE 11:01:19 23° SE 11:03:43 10° ESE visible
10 Dec 2.0 12:37:12 10° WSW 12:40:57 35° S 12:44:42 10° ESE visible
11 Dec 3.2 10:49:31 19° SE 10:49:31 19° SE 10:51:06 10° ESE visible
11 Dec 2.0 12:24:44 11° WSW 12:28:13 35° S 12:31:58 10° ESE visible
12 Dec 3.7 10:37:40 14° ESE 10:37:40 14° ESE 10:38:27 10° ESE visible
12 Dec 2.0 12:12:53 17° WSW 12:15:31 34° S 12:19:13 10° ESE visible
13 Dec 2.0 12:00:59 22° SW 12:02:46 32° S 12:06:27 10° ESE visible
14 Dec 2.0 11:49:03 27° SW 11:50:01 30° S 11:53:38 10° SE visible
15 Dec 2.1 11:37:06 28° SSW 11:37:16 28° S 11:40:47 10° SE visible
16 Dec 2.5 11:25:10 24° S 11:25:10 24° S 11:27:53 10° SE visible
17 Dec 3.0 11:13:13 18° SSE 11:13:13 18° SSE 11:14:57 10° SE visible
18 Dec 3.5 11:01:18 13° SSE 11:01:18 13° SSE 11:01:55 10° SSE visible
